Content
SEND FEEDBACK

Daily
Averages
Monthly
Summary
United States of America

DAYTONA BEACH, FLORIDA


Home > North America > United States > Florida
Elevation: 29 feet     Latitude: 29 11N     Longitude: 081 03W

WEATHER
 
SELECT A DAY
Number of Records: 195,307;   Date Range: 1/1/95 - 7/7/14
 
SHARE

PRINT THIS DATA

[ ← Previous Day ]
WEATHER ALMANAC - JANUARY 30, 2013
[ Next Day → ]
[ °C ]   °F
Weather ElementAverageHighLow
Temperature73.6 °F82.9 °F (2:53 pm)64.9 °F (5:53 am)
Dewpoint62.2 °F64.9 °F (1:53 am)57.9 °F (2:53 pm)
Humidity69.7 %97 % (5:53 am)42 % (2:53 pm)
Barometer29.99 in30.12 in (1:53 am)29.88 in (6:53 pm)
Wind Speed10.1 mph21.9 mph (10:53 am)
Wind Gust29.9 mph (10:53 am)
Weather ElementAverage
Visibility9.3 mi
Wind DirectionSSE (164.3 °)

Weather ElementTotal
Precipitation---
Cooling Degree Days8.9 (Base 65)
Growing Degree Days23.9 (Base 50)
Averaged from 23 records on January 30, 2013
WEATHER CONDITIONS BREAKOUT
WIND DIRECTION BREAKOUT
WEATHER BY HOUR - JANUARY 30, 2013
[ °C ]   °F
Local TimeTemperatureDewpointHumidityBarometerVisibilityWind DirectionWind SpeedGust SpeedPrecipitationEventsConditions
1:53 AM69.1 °F64.9 °F87 %30.12 in10.0 miSSE (150°)8.1 mphPartly Cloudy
2:53 AM68.0 °F64.9 °F90 %30.12 in10.0 miSouth (170°)5.8 mphClear
3:53 AM66.9 °F64.9 °F93 %30.10 in9.0 miSSE (150°)5.8 mphPartly Cloudy
4:53 AM66.0 °F64.9 °F96 %30.09 in7.0 miCalmScattered Clouds
5:53 AM64.9 °F64.0 °F97 %30.08 in5.0 miCalmPartly Cloudy
6:53 AM66.0 °F64.9 °F96 %30.08 in6.0 miSSE (160°)5.8 mphPartly Cloudy
7:53 AM66.0 °F64.9 °F96 %30.07 in7.0 miSouth (180°)5.8 mphPartly Cloudy
8:53 AM70.0 °F64.0 °F81 %30.05 in10.0 miSSE (160°)11.5 mph19.6 mphClear
9:53 AM73.9 °F63.0 °F68 %30.04 in10.0 miSouth (180°)12.7 mph19.6 mphScattered Clouds
10:53 AM77.0 °F61.0 °F58 %30.01 in9.0 miSouth (170°)21.9 mph29.9 mphScattered Clouds
11:53 AM79.0 °F61.0 °F54 %30.00 in10.0 miSouth (190°)19.6 mph27.6 mphScattered Clouds
12:53 PM80.1 °F61.0 °F52 %29.99 in10.0 miSSW (200°)13.8 mph26.5 mphScattered Clouds
1:53 PM82.0 °F60.1 °F47 %29.94 in10.0 miSouth (180°)13.8 mph24.2 mphScattered Clouds
2:53 PM82.9 °F57.9 °F42 %29.93 in10.0 miSouth (190°)11.5 mph26.5 mphScattered Clouds
3:53 PM82.0 °F59.0 °F45 %29.91 in10.0 miSSW (200°)15.0 mph26.5 mphScattered Clouds
4:53 PM81.0 °F61.0 °F50 %29.90 in10.0 miSouth (170°)12.7 mph23.0 mphMostly Cloudy
5:53 PM78.1 °F61.0 °F56 %29.90 in10.0 miSouth (180°)6.9 mph17.3 mphScattered Clouds
6:53 PM77.0 °F61.0 °F58 %29.88 in10.0 miSouth (180°)6.9 mphScattered Clouds
7:53 PM75.0 °F62.1 °F64 %29.88 in10.0 miSouth (180°)6.9 mphClear
8:53 PM73.0 °F62.1 °F68 %29.90 in10.0 miSSW (200°)9.2 mphPartly Cloudy
9:53 PM72.0 °F60.1 °F66 %29.90 in10.0 miSSW (200°)11.5 mphScattered Clouds
10:53 PM72.0 °F60.1 °F66 %29.90 in10.0 miSSW (200°)15.0 mph23.0 mphClear
11:53 PM71.1 °F62.1 °F73 %29.90 in10.0 miSouth (190°)12.7 mph20.7 mphClear
Hourly data recorded from KDAB, located miles away from Daytona Beach, Florida







STORIES FROM OUR PARTNERS